DAL56 KLAS-KSNA

Flight info

Callsign DAL56
Flight time 0h 55m
Altitude 17000
Route LAS V538 GFS/N0385F160 V210 HEC EMMLN1
Aircraft B712/M-SDFGHRWY/C

Departure

Time 2026-05-04 01:19
Airport Harry Reid International Airport (KLAS)

Arrival

Time 2026-05-04 02:14
Airport John Wayne Orange County International Airport (KSNA)
Time Latitude Longitude Altitude Speed Heading
2026-05-04 00:57 36.08278 -115.13224 2070 ft 0 kts 267°
2026-05-04 01:12 36.08278 -115.13225 2070 ft 0 kts 267°
2026-05-04 01:13 36.08278 -115.13226 2070 ft 0 kts 267°
2026-05-04 01:13 36.08277 -115.13247 2071 ft 6 kts 264°
2026-05-04 01:13 36.08252 -115.13294 2073 ft 4 kts 193°
2026-05-04 01:13 36.08216 -115.13295 2073 ft 11 kts 181°
2026-05-04 01:14 36.08099 -115.13295 2074 ft 21 kts 178°
2026-05-04 01:14 36.07956 -115.13293 2077 ft 16 kts 181°
2026-05-04 01:14 36.07886 -115.13293 2077 ft 7 kts 180°
2026-05-04 01:14 36.07829 -115.13294 2074 ft 9 kts 180°
2026-05-04 01:15 36.07762 -115.13271 2076 ft 12 kts 123°
2026-05-04 01:15 36.07755 -115.13137 2068 ft 20 kts 90°
2026-05-04 01:15 36.07753 -115.12941 2059 ft 26 kts 91°
2026-05-04 01:15 36.07754 -115.12702 2046 ft 24 kts 91°
2026-05-04 01:16 36.07751 -115.12528 2040 ft 22 kts 89°
2026-05-04 01:16 36.07753 -115.12333 2034 ft 22 kts 89°
2026-05-04 01:16 36.07752 -115.12181 2029 ft 8 kts 101°
2026-05-04 01:16 36.07724 -115.12134 2029 ft 7 kts 152°
2026-05-04 01:17 36.07678 -115.12128 2033 ft 7 kts 181°
2026-05-04 01:17 36.07647 -115.12153 2031 ft 5 kts 246°
2026-05-04 01:17 36.07643 -115.12249 2033 ft 30 kts 270°
2026-05-04 01:17 36.07643 -115.12745 2051 ft 83 kts 270°
2026-05-04 01:18 36.07640 -115.13664 2093 ft 131 kts 269°
2026-05-04 01:18 36.07616 -115.14973 2185 ft 168 kts 265°
2026-05-04 01:18 36.07614 -115.16452 2446 ft 173 kts 263°
2026-05-04 01:18 36.07534 -115.17954 2766 ft 176 kts 252°
2026-05-04 01:19 36.07054 -115.19319 2971 ft 170 kts 219°
2026-05-04 01:19 36.06014 -115.20004 3070 ft 177 kts 197°
2026-05-04 01:19 36.04761 -115.20409 3073 ft 197 kts 193°
2026-05-04 01:19 36.03414 -115.20783 3290 ft 196 kts 193°
2026-05-04 01:20 36.02002 -115.21127 3427 ft 216 kts 193°
2026-05-04 01:20 36.00491 -115.21455 3813 ft 231 kts 192°
2026-05-04 01:20 35.98828 -115.21793 4181 ft 247 kts 191°
2026-05-04 01:20 35.97186 -115.22115 4593 ft 229 kts 191°
2026-05-04 01:21 35.95705 -115.22368 5107 ft 201 kts 191°
2026-05-04 01:21 35.94417 -115.22583 5608 ft 171 kts 191°
2026-05-04 01:21 35.93354 -115.22749 5983 ft 143 kts 191°
2026-05-04 01:21 35.92275 -115.22921 5784 ft 179 kts 190°
2026-05-04 01:22 35.90908 -115.23166 5670 ft 213 kts 191°
2026-05-04 01:22 35.89375 -115.23451 5903 ft 233 kts 191°
2026-05-04 01:22 35.87742 -115.23768 6131 ft 237 kts 191°
2026-05-04 01:22 35.86122 -115.24085 6347 ft 234 kts 191°
2026-05-04 01:23 35.84519 -115.24395 6582 ft 232 kts 191°
2026-05-04 01:23 35.82949 -115.24670 6821 ft 230 kts 184°
2026-05-04 01:23 35.81459 -115.24059 7094 ft 235 kts 143°
2026-05-04 01:23 35.80567 -115.22334 7350 ft 249 kts 120°
2026-05-04 01:24 35.79813 -115.20332 7597 ft 264 kts 122°
2026-05-04 01:24 35.78840 -115.18394 7960 ft 264 kts 137°
2026-05-04 01:24 35.77361 -115.17289 8464 ft 243 kts 169°
2026-05-04 01:24 35.75706 -115.16956 8982 ft 238 kts 176°
2026-05-04 01:25 35.74597 -115.16833 9311 ft 237 kts 179°
2026-05-04 01:25 35.72967 -115.16725 9814 ft 237 kts 180°
2026-05-04 01:25 35.71329 -115.16681 10287 ft 234 kts 181°
2026-05-04 01:25 35.69690 -115.16661 10669 ft 241 kts 182°
2026-05-04 01:26 35.67961 -115.16672 10919 ft 256 kts 182°
2026-05-04 01:26 35.66111 -115.16695 11188 ft 275 kts 182°
2026-05-04 01:26 35.64129 -115.16728 11431 ft 296 kts 182°
2026-05-04 01:26 35.61986 -115.16772 11664 ft 320 kts 181°
2026-05-04 01:27 35.59663 -115.16812 11920 ft 348 kts 182°
2026-05-04 01:27 35.57164 -115.16859 12382 ft 371 kts 182°
2026-05-04 01:27 35.54514 -115.16905 12989 ft 382 kts 182°
2026-05-04 01:27 35.51918 -115.16945 13642 ft 363 kts 182°
2026-05-04 01:28 35.49459 -115.16976 14238 ft 343 kts 182°
2026-05-04 01:28 35.47136 -115.17004 14836 ft 327 kts 183°
2026-05-04 01:28 35.44869 -115.17035 15461 ft 326 kts 183°
2026-05-04 01:28 35.42599 -115.17071 16093 ft 325 kts 183°
2026-05-04 01:29 35.40350 -115.17109 16587 ft 329 kts 184°
2026-05-04 01:29 35.38046 -115.17149 17066 ft 333 kts 184°
2026-05-04 01:29 35.35715 -115.17193 17538 ft 337 kts 184°
2026-05-04 01:29 35.33333 -115.17241 17810 ft 348 kts 184°
2026-05-04 01:30 35.30858 -115.17294 17922 ft 364 kts 184°
2026-05-04 01:30 35.28254 -115.17352 17959 ft 384 kts 184°
2026-05-04 01:30 35.25558 -115.17410 17960 ft 391 kts 184°
2026-05-04 01:30 35.22789 -115.17464 17975 ft 400 kts 184°
2026-05-04 01:31 35.20005 -115.17515 17983 ft 400 kts 184°
2026-05-04 01:31 35.17223 -115.17568 17984 ft 398 kts 185°
2026-05-04 01:31 35.14572 -115.18281 18023 ft 387 kts 208°
2026-05-04 01:31 35.12460 -115.20270 18045 ft 387 kts 231°
2026-05-04 01:32 35.11180 -115.23191 18046 ft 397 kts 248°
2026-05-04 01:32 35.10320 -115.26360 18011 ft 399 kts 251°
2026-05-04 01:32 35.09540 -115.29607 18001 ft 397 kts 251°
2026-05-04 01:32 35.08793 -115.32849 17997 ft 395 kts 252°
2026-05-04 01:33 35.08057 -115.36066 17994 ft 393 kts 252°
2026-05-04 01:33 35.07317 -115.39273 17999 ft 392 kts 251°
2026-05-04 01:33 35.06565 -115.42484 17999 ft 393 kts 251°
2026-05-04 01:33 35.05799 -115.45695 18000 ft 395 kts 251°
2026-05-04 01:34 35.05022 -115.48902 18005 ft 394 kts 251°
2026-05-04 01:34 35.04237 -115.52100 17998 ft 392 kts 251°
2026-05-04 01:34 35.03446 -115.55288 17999 ft 392 kts 250°
2026-05-04 01:34 35.02648 -115.58476 18006 ft 393 kts 250°
2026-05-04 01:35 35.01844 -115.61666 18004 ft 393 kts 250°
2026-05-04 01:35 35.01034 -115.64856 18008 ft 393 kts 250°
2026-05-04 01:35 35.00221 -115.68039 18007 ft 392 kts 250°
2026-05-04 01:35 34.99408 -115.71211 18005 ft 392 kts 250°
2026-05-04 01:36 34.98593 -115.74380 17999 ft 391 kts 250°
2026-05-04 01:36 34.97777 -115.77542 18002 ft 391 kts 250°
2026-05-04 01:36 34.96958 -115.80703 17996 ft 391 kts 250°
2026-05-04 01:36 34.96138 -115.83867 17997 ft 391 kts 250°
2026-05-04 01:37 34.95318 -115.87021 17994 ft 390 kts 250°
2026-05-04 01:37 34.94508 -115.90134 17988 ft 389 kts 250°
2026-05-04 01:37 34.93687 -115.93283 17994 ft 390 kts 250°
2026-05-04 01:37 34.92863 -115.96437 17991 ft 391 kts 250°
2026-05-04 01:38 34.92038 -115.99585 17984 ft 390 kts 250°
2026-05-04 01:38 34.91214 -116.02733 17981 ft 389 kts 250°
2026-05-04 01:38 34.90394 -116.05865 17973 ft 388 kts 250°
2026-05-04 01:38 34.89572 -116.08997 17978 ft 388 kts 250°
2026-05-04 01:39 34.88746 -116.12134 17986 ft 389 kts 250°
2026-05-04 01:39 34.87918 -116.15272 17984 ft 389 kts 250°
2026-05-04 01:39 34.87093 -116.18403 17967 ft 389 kts 250°
2026-05-04 01:39 34.86262 -116.21550 17812 ft 391 kts 250°
2026-05-04 01:40 34.85434 -116.24684 17356 ft 395 kts 250°
2026-05-04 01:40 34.84597 -116.27847 16898 ft 390 kts 250°
2026-05-04 01:40 34.83773 -116.30973 16430 ft 387 kts 250°
2026-05-04 01:40 34.82949 -116.34090 15983 ft 386 kts 250°
2026-05-04 01:41 34.82124 -116.37202 15548 ft 385 kts 250°
2026-05-04 01:41 34.81305 -116.40297 15111 ft 384 kts 250°
2026-05-04 01:41 34.80442 -116.43376 14682 ft 383 kts 247°
2026-05-04 01:41 34.79493 -116.46394 14249 ft 378 kts 245°
2026-05-04 01:42 34.78525 -116.49318 13829 ft 367 kts 244°
2026-05-04 01:42 34.77559 -116.52146 13394 ft 359 kts 244°
2026-05-04 01:42 34.76593 -116.54911 12923 ft 351 kts 244°
2026-05-04 01:42 34.75643 -116.57601 12457 ft 351 kts 244°
2026-05-04 01:43 34.74684 -116.60291 11991 ft 343 kts 243°
2026-05-04 01:43 34.73732 -116.62932 11533 ft 338 kts 244°
2026-05-04 01:43 34.72792 -116.65533 11098 ft 335 kts 244°
2026-05-04 01:43 34.71855 -116.68115 10676 ft 332 kts 244°
2026-05-04 01:44 34.70927 -116.70678 10238 ft 329 kts 244°
2026-05-04 01:44 34.70020 -116.73187 9998 ft 317 kts 244°
2026-05-04 01:44 34.69156 -116.75586 10040 ft 301 kts 245°
2026-05-04 01:44 34.68338 -116.77866 10068 ft 291 kts 245°
2026-05-04 01:45 34.67522 -116.80131 10071 ft 296 kts 244°
2026-05-04 01:45 34.66692 -116.82422 10091 ft 296 kts 244°
2026-05-04 01:45 34.64999 -116.87070 10097 ft 319 kts 244°
2026-05-04 01:46 34.64080 -116.89590 10104 ft 330 kts 245°
2026-05-04 01:46 34.63153 -116.92127 10104 ft 328 kts 245°
2026-05-04 01:46 34.62230 -116.94672 10110 ft 328 kts 245°
2026-05-04 01:46 34.61309 -116.97208 10111 ft 328 kts 245°
2026-05-04 01:47 34.60388 -116.99743 10106 ft 328 kts 245°
2026-05-04 01:47 34.59470 -117.02268 10135 ft 327 kts 245°
2026-05-04 01:47 34.58548 -117.04797 10157 ft 327 kts 245°
2026-05-04 01:47 34.57625 -117.07325 10168 ft 327 kts 245°
2026-05-04 01:48 34.56707 -117.09843 10172 ft 326 kts 244°
2026-05-04 01:48 34.55506 -117.12149 10198 ft 324 kts 229°
2026-05-04 01:48 34.53911 -117.14094 10206 ft 327 kts 222°
2026-05-04 01:48 34.52138 -117.15830 10201 ft 328 kts 217°
2026-05-04 01:49 34.50261 -117.17398 10200 ft 328 kts 214°
2026-05-04 01:49 34.48313 -117.18834 10200 ft 328 kts 211°
2026-05-04 01:49 34.46311 -117.20164 10200 ft 328 kts 210°
2026-05-04 01:49 34.44277 -117.21432 10200 ft 329 kts 208°
2026-05-04 01:50 34.42235 -117.22686 10199 ft 328 kts 208°
2026-05-04 01:50 34.40193 -117.23923 10192 ft 328 kts 208°
2026-05-04 01:50 34.38143 -117.25144 10191 ft 329 kts 208°
2026-05-04 01:50 34.36088 -117.26361 10191 ft 328 kts 208°
2026-05-04 01:51 34.34038 -117.27581 10212 ft 329 kts 208°
2026-05-04 01:51 34.31988 -117.28807 10224 ft 328 kts 207°
2026-05-04 01:51 34.29944 -117.30035 10230 ft 328 kts 208°
2026-05-04 01:51 34.27922 -117.31254 10235 ft 328 kts 208°
2026-05-04 01:52 34.25879 -117.32487 10216 ft 328 kts 207°
2026-05-04 01:52 34.23830 -117.33725 10247 ft 329 kts 207°
2026-05-04 01:52 34.21777 -117.34962 10255 ft 330 kts 207°
2026-05-04 01:52 34.19720 -117.36205 10270 ft 331 kts 207°
2026-05-04 01:53 34.17666 -117.37446 10268 ft 330 kts 207°
2026-05-04 01:53 34.15616 -117.38685 10271 ft 329 kts 207°
2026-05-04 01:53 34.13570 -117.39922 10278 ft 329 kts 207°
2026-05-04 01:53 34.11588 -117.41280 10285 ft 326 kts 222°
2026-05-04 01:54 34.10231 -117.43455 10326 ft 332 kts 241°
2026-05-04 01:54 34.09211 -117.45977 10321 ft 335 kts 243°
2026-05-04 01:54 34.08229 -117.48524 10318 ft 333 kts 243°
2026-05-04 01:54 34.07243 -117.51035 10309 ft 330 kts 243°
2026-05-04 01:55 34.06222 -117.53512 10305 ft 330 kts 241°
2026-05-04 01:55 34.05142 -117.55969 10303 ft 331 kts 240°
2026-05-04 01:55 34.04003 -117.58384 10301 ft 332 kts 239°
2026-05-04 01:55 34.03008 -117.60908 10302 ft 333 kts 246°
2026-05-04 01:56 34.02170 -117.63505 10303 ft 333 kts 248°
2026-05-04 01:56 34.01374 -117.66130 10310 ft 333 kts 248°
2026-05-04 01:56 34.00588 -117.68758 10310 ft 333 kts 248°
2026-05-04 01:56 33.99790 -117.71388 10313 ft 334 kts 248°
2026-05-04 01:57 33.98976 -117.74003 10305 ft 334 kts 248°
2026-05-04 01:57 33.98087 -117.76577 10308 ft 330 kts 236°
2026-05-04 01:57 33.96516 -117.78493 10355 ft 331 kts 209°
2026-05-04 01:57 33.94368 -117.79464 10224 ft 318 kts 196°
2026-05-04 01:58 33.92344 -117.80024 9915 ft 275 kts 193°
2026-05-04 01:58 33.90492 -117.80449 9590 ft 266 kts 192°
2026-05-04 01:58 33.88707 -117.80825 9250 ft 256 kts 192°
2026-05-04 01:58 33.86963 -117.81178 8923 ft 251 kts 192°
2026-05-04 01:59 33.85250 -117.81520 8587 ft 250 kts 191°
2026-05-04 01:59 33.83529 -117.81865 8279 ft 253 kts 191°
2026-05-04 01:59 33.81791 -117.82212 8122 ft 251 kts 191°
2026-05-04 01:59 33.80062 -117.82557 8066 ft 254 kts 191°
2026-05-04 02:00 33.78309 -117.82903 8045 ft 255 kts 192°
2026-05-04 02:00 33.76562 -117.83245 8044 ft 254 kts 191°
2026-05-04 02:00 33.74816 -117.83585 8034 ft 254 kts 191°
2026-05-04 02:00 33.73057 -117.83923 8030 ft 256 kts 191°
2026-05-04 02:01 33.71293 -117.84259 7983 ft 258 kts 191°
2026-05-04 02:01 33.69530 -117.84594 7715 ft 260 kts 191°
2026-05-04 02:01 33.67763 -117.84929 7393 ft 256 kts 191°
2026-05-04 02:01 33.66105 -117.85553 7094 ft 246 kts 218°
2026-05-04 02:02 33.65125 -117.87189 6808 ft 246 kts 256°
2026-05-04 02:02 33.65217 -117.89121 6542 ft 249 kts 290°
2026-05-04 02:02 33.65992 -117.90983 6266 ft 248 kts 298°
2026-05-04 02:02 33.66866 -117.92724 6124 ft 238 kts 300°
2026-05-04 02:03 33.67762 -117.94401 6065 ft 241 kts 304°
2026-05-04 02:03 33.69025 -117.95710 6058 ft 246 kts 337°
2026-05-04 02:03 33.70638 -117.95802 6061 ft 224 kts 18°
2026-05-04 02:03 33.72030 -117.94977 6050 ft 231 kts 28°
2026-05-04 02:04 33.73413 -117.93971 6039 ft 232 kts 30°
2026-05-04 02:04 33.74776 -117.92926 6038 ft 232 kts 31°
2026-05-04 02:04 33.76132 -117.91859 6029 ft 233 kts 32°
2026-05-04 02:04 33.77482 -117.90788 6022 ft 233 kts 32°
2026-05-04 02:05 33.78839 -117.89716 6005 ft 233 kts 31°
2026-05-04 02:05 33.80192 -117.88650 6004 ft 232 kts 32°
2026-05-04 02:05 33.81547 -117.87580 6001 ft 232 kts 32°
2026-05-04 02:05 33.82884 -117.86522 6001 ft 233 kts 32°
2026-05-04 02:06 33.84259 -117.85442 6003 ft 233 kts 32°
2026-05-04 02:06 33.85620 -117.84385 6006 ft 234 kts 32°
2026-05-04 02:06 33.86978 -117.83342 6001 ft 234 kts 32°
2026-05-04 02:06 33.88370 -117.82274 5958 ft 237 kts 31°
2026-05-04 02:07 33.89704 -117.81256 5803 ft 212 kts 32°
2026-05-04 02:07 33.90889 -117.80352 5647 ft 195 kts 32°
2026-05-04 02:07 33.92040 -117.79432 5380 ft 202 kts 43°
2026-05-04 02:07 33.92608 -117.77970 5185 ft 195 kts 94°
2026-05-04 02:08 33.92149 -117.76478 5092 ft 194 kts 126°
2026-05-04 02:08 33.91368 -117.75137 5059 ft 195 kts 129°
2026-05-04 02:08 33.90538 -117.73858 5044 ft 192 kts 137°
2026-05-04 02:08 33.89367 -117.73292 5006 ft 186 kts 187°
2026-05-04 02:09 33.88156 -117.73881 4670 ft 187 kts 209°
2026-05-04 02:09 33.87020 -117.74571 4322 ft 181 kts 207°
2026-05-04 02:09 33.86267 -117.75007 4185 ft 178 kts 206°
2026-05-04 02:09 33.84798 -117.75879 4053 ft 178 kts 208°
2026-05-04 02:10 33.84054 -117.76338 4034 ft 179 kts 209°
2026-05-04 02:10 33.82599 -117.77274 4027 ft 178 kts 209°
2026-05-04 02:10 33.81491 -117.77995 3871 ft 185 kts 209°
2026-05-04 02:10 33.80376 -117.78721 3498 ft 180 kts 210°
2026-05-04 02:11 33.79634 -117.79198 3230 ft 178 kts 209°
2026-05-04 02:11 33.78544 -117.79895 2862 ft 176 kts 210°
2026-05-04 02:11 33.77462 -117.80585 2510 ft 168 kts 209°
2026-05-04 02:11 33.76516 -117.81187 2099 ft 152 kts 209°
2026-05-04 02:12 33.75588 -117.81784 1772 ft 152 kts 210°
2026-05-04 02:12 33.74655 -117.82381 1495 ft 153 kts 210°
2026-05-04 02:12 33.73719 -117.82978 1232 ft 153 kts 207°
2026-05-04 02:12 33.72777 -117.83563 1119 ft 150 kts 209°
2026-05-04 02:13 33.71895 -117.84114 967 ft 140 kts 209°
2026-05-04 02:13 33.71043 -117.84688 721 ft 140 kts 212°
2026-05-04 02:13 33.70208 -117.85233 531 ft 134 kts 210°
2026-05-04 02:13 33.69385 -117.85744 388 ft 136 kts 211°
2026-05-04 02:14 33.68549 -117.86276 192 ft 133 kts 209°
2026-05-04 02:14 33.67760 -117.86771 57 ft 120 kts 208°
2026-05-04 02:14 33.67147 -117.87160 59 ft 71 kts 206°
2026-05-04 02:14 33.66856 -117.87335 68 ft 27 kts 206°
2026-05-04 02:15 33.66774 -117.87335 67 ft 11 kts 133°
2026-05-04 02:15 33.66757 -117.87286 64 ft 0 kts 89°
2026-05-04 02:16 33.66762 -117.87261 67 ft 9 kts 66°
2026-05-04 02:16 33.66827 -117.87184 63 ft 16 kts 39°
2026-05-04 02:17 33.66923 -117.87079 61 ft 22 kts 42°
2026-05-04 02:17 33.67052 -117.86949 59 ft 26 kts 40°
2026-05-04 02:17 33.67182 -117.86832 59 ft 22 kts 29°
2026-05-04 02:17 33.67303 -117.86733 61 ft 21 kts 44°
2026-05-04 02:18 33.67430 -117.86638 58 ft 23 kts 28°
2026-05-04 02:18 33.67587 -117.86537 57 ft 26 kts 28°
2026-05-04 02:18 33.67755 -117.86431 55 ft 28 kts 28°
2026-05-04 02:18 33.67914 -117.86330 52 ft 24 kts 32°
2026-05-04 02:19 33.68065 -117.86235 50 ft 22 kts 28°
2026-05-04 02:19 33.68167 -117.86169 51 ft 7 kts 28°
2026-05-04 02:19 33.68201 -117.86144 49 ft 2 kts 56°
2026-05-04 02:19 33.68202 -117.86135 50 ft 1 kts 84°
2026-05-04 02:20 33.68201 -117.86114 52 ft 4 kts 99°
2026-05-04 02:20 33.68195 -117.86094 50 ft 0 kts 117°
2026-05-04 02:20 33.68194 -117.86092 50 ft 1 kts 117°
2026-05-04 02:20 33.68189 -117.86081 52 ft 2 kts 118°
2026-05-04 02:21 33.68185 -117.86073 51 ft 0 kts 117°